Flag for U.S.A. Weather past 2 weeks in Portland, Oregon, U.S.A.

Now
69 °F

Clear.


Feels Like: 69 °F
Forecast: 49 / 60 °F
Wind: 10 mph from Southeast

Location: Portland International Airport

Current Time: Apr 27, 2015 at 10:22:48 PM

Latest Report: Apr 27, 2015 at 9:53 PM


Visibility: 10 mi

Pressure: 29.92 "Hg

Humidity: 47%

Dew point: 48 °F

Location of PortlandLocation

Historic Weather in Portland — Graph

°F

Portland temperature yesterday

Maximum temperature yesterday: 60 °F (at 1:53 PM)
Minimum temperature yesterday: 42 °F (at 3:53 AM)
Average temperature yesterday: 52 °F

Past Weeks' High & Low Weather Summary

 TemperatureHumidityPressure
High81 °F (Apr 27, 4:53 PM)100% (Apr 14, 11:53 PM)30.58 "Hg (Apr 14, 11:53 PM)
Low36 °F (Apr 15, 3:53 AM)23% (Apr 20, 3:53 PM)29.78 "Hg (Apr 20, 6:53 PM)
Average54 °F69%30.12 "Hg
* Reported Apr 12 8:53 PM — Apr 27 8:53 PM, Portland, Weather by CustomWeather, © 2015

Note: Actual official high and low records may vary slightly from our data, if they occured in-between our weather recording intervals... More about our weather records

Advertising

Portland weather history for previous 24 hours

 ConditionsComfort  
Time TempWeatherWind HumidityBarometerVisibility
8:53 PM
Mon, Apr 27
72 °FPassing clouds.9 mph44%29.91 "Hg10 mi
7:53 PM74 °FPartly sunny.15 mph43%29.90 "Hg10 mi
6:53 PM77 °FPartly sunny.9 mph40%29.92 "Hg10 mi
4:53 PM81 °FScattered clouds.3 mph39%29.96 "Hg10 mi
3:53 PM79 °FScattered clouds.No wind45%30.00 "Hg10 mi
2:53 PM76 °FScattered clouds.8 mph50%30.04 "Hg10 mi
1:53 PM72 °FScattered clouds.10 mph57%30.08 "Hg10 mi
12:53 PM69 °FScattered clouds.10 mph61%30.11 "Hg10 mi
11:53 AM66 °FPassing clouds.7 mph65%30.15 "Hg10 mi
10:53 AM62 °FPassing clouds.8 mph73%30.19 "Hg10 mi
9:53 AM59 °FPassing clouds.5 mph81%30.22 "Hg10 mi
8:53 AM54 °FScattered clouds.No wind93%30.25 "Hg10 mi
8:04 AM54 °FPartly sunny.5 mph93%30.27 "Hg10 mi
7:53 AM54 °FBroken clouds.No wind97%30.27 "Hg10 mi
6:53 AM51 °FPassing clouds.No wind100%30.27 "Hg8 mi
5:53 AM52 °FPartly cloudy.No wind97%30.27 "Hg10 mi
4:53 AM53 °FPartly cloudy.No wind93%30.27 "Hg10 mi
3:53 AM53 °FPartly cloudy.3 mph93%30.28 "Hg10 mi
2:53 AM53 °FOvercast.3 mph93%30.28 "Hg10 mi
1:53 AM53 °FLow clouds.5 mph96%30.29 "Hg10 mi
12:53 AM53 °FLow clouds.7 mph96%30.29 "Hg10 mi
11:53 PM
Sun, Apr 26
53 °FOvercast.6 mph96%30.29 "Hg10 mi
11:02 PM53 °FLight rain. Mostly cloudy.9 mph96%30.30 "Hg6 mi
10:53 PM53 °FLight rain. Mostly cloudy.7 mph96%30.29 "Hg6 mi
Weather by CustomWeather, © 2015

See weather overviewHow to use our weather pages